Time,TemperatureF,DewpointF,PressureIn,WindDirection,WindDirectionDegrees,WindSpeedMPH,WindSpeedGustMPH,Humidity,HourlyPrecipIn,Conditions,Clouds,dailyrainin,SoftwareType,DateUTC
2013-04-19 00:01:00,65.0,63.5,29.30,South,180,2.3,2.3,95,0.00,CLR,OVC,0.00,WeatherDisplay:10.37,2013-04-19 04:01:00,
2013-04-19 00:06:00,65.0,63.8,29.30,South,180,0.0,0.1,96,0.00,CLR,OVC,0.00,WeatherDisplay:10.37,2013-04-19 04:06:00,
2013-04-19 00:11:00,65.0,63.8,29.29,WSW,247,0.0,0.2,96,0.00,CLR,OVC,0.00,WeatherDisplay:10.37,2013-04-19 04:11:00,
2013-04-19 00:16:00,65.0,63.8,29.29,SSW,202,1.2,0.0,96,0.00,CLR,OVC,0.00,WeatherDisplay:10.37,2013-04-19 04:16:00,
2013-04-19 00:21:00,65.0,63.8,29.29,ESE,112,0.0,0.0,96,0.00,CLR,OVC,0.00,WeatherDisplay:10.37,2013-04-19 04:21:00,
2013-04-19 00:26:00,65.0,63.8,29.29,ESE,112,2.3,2.3,96,0.00,CLR,OVC,0.00,WeatherDisplay:10.37,2013-04-19 04:26:00,
2013-04-19 00:31:00,65.0,64.1,29.29,South,180,2.3,2.3,97,0.00,CLR,OVC,0.00,WeatherDisplay:10.37,2013-04-19 04:31:00,
2013-04-19 00:36:00,65.0,64.1,29.29,SSW,202,0.0,0.0,97,0.00,CLR,OVC,0.00,WeatherDisplay:10.37,2013-04-19 04:36:00,
2013-04-19 00:41:00,65.0,63.8,29.28,South,180,0.0,0.0,96,0.00,CLR,OVC,0.00,WeatherDisplay:10.37,2013-04-19 04:41:00,
2013-04-19 00:46:00,65.0,64.1,29.28,SW,225,0.0,0.1,97,0.00,CLR,OVC,0.00,WeatherDisplay:10.37,2013-04-19 04:46:00,
2013-04-19 00:51:00,65.0,63.8,29.28,SW,225,0.0,0.0,96,0.00,CLR,OVC,0.00,WeatherDisplay:10.37,2013-04-19 04:51:00,
2013-04-19 00:56:00,65.0,64.4,29.28,South,180,1.2,1.2,98,0.00,CLR,OVC,0.00,WeatherDisplay:10.37,2013-04-19 04:56:00,
2013-04-19 01:01:00,65.0,64.4,29.28,SW,225,0.0,0.0,98,0.00,CLR,OVC,0.00,WeatherDisplay:10.37,2013-04-19 05:01:00,
2013-04-19 01:06:00,65.0,64.4,29.28,South,180,2.3,2.3,98,0.00,CLR,OVC,0.00,WeatherDisplay:10.37,2013-04-19 05:06:00,
2013-04-19 01:11:00,65.0,64.4,29.27,South,180,1.2,1.2,98,0.00,CLR,OVC,0.00,WeatherDisplay:10.37,2013-04-19 05:11:00,
2013-04-19 01:16:00,65.0,64.4,29.27,South,180,0.0,0.6,98,0.00,CLR,OVC,0.00,WeatherDisplay:10.37,2013-04-19 05:16:00,
2013-04-19 01:21:00,65.0,64.7,29.26,SSW,202,1.2,1.2,99,0.00,CLR,OVC,0.00,WeatherDisplay:10.37,2013-04-19 05:21:00,
2013-04-19 01:26:00,65.0,64.7,29.26,WNW,292,2.3,2.3,99,0.00,CLR,OVC,0.00,WeatherDisplay:10.37,2013-04-19 05:26:00,
2013-04-19 01:31:00,65.0,64.7,29.25,SSW,202,1.0,1.0,99,0.00,CLR,OVC,0.00,WeatherDisplay:10.37,2013-04-19 05:31:00,
2013-04-19 01:36:00,64.0,64.0,29.25,SSW,202,3.5,3.5,100,0.00,CLR,OVC,0.00,WeatherDisplay:10.37,2013-04-19 05:36:00,
2013-04-19 01:41:00,64.0,64.0,29.24,SSW,202,5.8,5.8,100,0.00,CLR,OVC,0.00,WeatherDisplay:10.37,2013-04-19 05:41:00,
2013-04-19 01:46:00,64.0,64.0,29.24,South,180,2.3,2.3,100,0.00,CLR,OVC,0.00,WeatherDisplay:10.37,2013-04-19 05:46:00,
2013-04-19 01:51:00,64.0,64.0,29.24,NNW,337,2.3,2.3,100,0.00,CLR,OVC,0.00,WeatherDisplay:10.37,2013-04-19 05:51:00,
2013-04-19 01:56:00,64.0,64.0,29.24,South,180,4.6,4.6,100,0.00,CLR,OVC,0.00,WeatherDisplay:10.37,2013-04-19 05:56:00,
2013-04-19 02:01:00,64.0,64.0,29.24,SSW,202,0.0,0.2,100,0.00,CLR,OVC,0.00,WeatherDisplay:10.37,2013-04-19 06:01:00,
2013-04-19 02:06:00,64.0,64.0,29.24,SSW,202,0.0,0.2,100,0.00,CLR,OVC,0.00,WeatherDisplay:10.37,2013-04-19 06:06:00,
2013-04-19 02:11:00,64.0,64.0,29.23,SE,135,0.0,0.0,100,0.00,CLR,OVC,0.00,WeatherDisplay:10.37,2013-04-19 06:11:00,
2013-04-19 02:16:00,64.0,64.0,29.23,SW,225,1.2,1.2,100,0.00,CLR,OVC,0.00,WeatherDisplay:10.37,2013-04-19 06:16:00,
2013-04-19 02:22:00,64.0,63.7,29.23,SSW,202,3.5,3.5,99,0.00,CLR,OVC,0.00,WeatherDisplay:10.37,2013-04-19 06:22:00,
2013-04-19 02:27:00,64.0,64.0,29.23,South,180,2.3,0.0,100,0.00,CLR,OVC,0.00,WeatherDisplay:10.37,2013-04-19 06:27:00,
2013-04-19 02:32:00,64.0,64.0,29.23,South,180,0.0,0.0,100,0.00,CLR,OVC,0.00,WeatherDisplay:10.37,2013-04-19 06:32:00,
2013-04-19 02:37:00,64.0,63.7,29.23,SSW,202,1.2,1.2,99,0.00,CLR,OVC,0.00,WeatherDisplay:10.37,2013-04-19 06:37:00,
2013-04-19 02:42:00,64.0,63.7,29.22,South,180,0.0,0.0,99,0.00,CLR,OVC,0.00,WeatherDisplay:10.37,2013-04-19 06:42:00,
2013-04-19 02:47:00,64.0,63.4,29.22,SSW,202,0.0,0.0,98,0.00,CLR,OVC,0.00,WeatherDisplay:10.37,2013-04-19 06:47:00,
2013-04-19 02:52:00,64.0,63.4,29.21,NE,45,3.5,3.5,98,0.00,CLR,OVC,0.00,WeatherDisplay:10.37,2013-04-19 06:52:00,
2013-04-19 02:57:00,64.0,63.4,29.21,SSE,157,2.3,2.3,98,0.00,CLR,OVC,0.00,WeatherDisplay:10.37,2013-04-19 06:57:00,
2013-04-19 03:02:00,64.0,63.4,29.21,SSE,157,0.0,0.0,98,0.00,CLR,OVC,0.00,WeatherDisplay:10.37,2013-04-19 07:02:00,
2013-04-19 03:07:00,64.0,63.1,29.21,WSW,247,3.5,3.5,97,0.00,CLR,OVC,0.00,WeatherDisplay:10.37,2013-04-19 07:07:00,
2013-04-19 03:12:00,64.0,63.4,29.21,South,180,0.0,0.0,98,0.00,CLR,OVC,0.00,WeatherDisplay:10.37,2013-04-19 07:12:00,
2013-04-19 03:17:00,64.0,63.4,29.21,SSE,157,0.0,0.0,98,0.00,CLR,OVC,0.00,WeatherDisplay:10.37,2013-04-19 07:17:00,
2013-04-19 03:22:00,64.0,63.1,29.21,South,180,1.2,1.2,97,0.00,CLR,OVC,0.00,WeatherDisplay:10.37,2013-04-19 07:22:00,
2013-04-19 03:27:00,64.0,63.1,29.21,SSE,157,1.2,1.2,97,0.00,CLR,OVC,0.00,WeatherDisplay:10.37,2013-04-19 07:27:00,
2013-04-19 03:32:00,64.0,63.1,29.20,South,180,0.0,0.0,97,0.00,CLR,OVC,0.00,WeatherDisplay:10.37,2013-04-19 07:32:00,
2013-04-19 03:37:00,64.0,63.4,29.20,WSW,247,0.0,0.0,98,0.00,CLR,OVC,0.00,WeatherDisplay:10.37,2013-04-19 07:37:00,
2013-04-19 03:42:00,64.0,62.8,29.19,East,90,0.0,0.0,96,0.00,CLR,OVC,0.00,WeatherDisplay:10.37,2013-04-19 07:42:00,
2013-04-19 03:47:00,64.0,63.1,29.20,SSW,202,1.2,1.2,97,0.00,CLR,OVC,0.00,WeatherDisplay:10.37,2013-04-19 07:47:00,
2013-04-19 03:52:00,64.0,62.8,29.20,ENE,67,0.0,0.0,96,0.00,CLR,OVC,0.00,WeatherDisplay:10.37,2013-04-19 07:52:00,
2013-04-19 03:57:00,64.0,63.1,29.19,SW,225,0.0,0.0,97,0.00,CLR,OVC,0.00,WeatherDisplay:10.37,2013-04-19 07:57:00,
2013-04-19 04:02:00,64.0,62.8,29.19,WSW,247,0.0,0.2,96,0.00,CLR,OVC,0.00,WeatherDisplay:10.37,2013-04-19 08:02:00,
2013-04-19 04:07:00,64.0,62.8,29.19,SSE,157,0.0,0.0,96,0.00,CLR,OVC,0.00,WeatherDisplay:10.37,2013-04-19 08:07:00,
2013-04-19 04:12:00,64.0,62.2,29.19,SSW,202,2.3,2.3,94,0.00,CLR,OVC,0.00,WeatherDisplay:10.37,2013-04-19 08:12:00,
2013-04-19 04:17:00,64.0,62.5,29.19,SSW,202,0.0,0.0,95,0.00,CLR,OVC,0.00,WeatherDisplay:10.37,2013-04-19 08:17:00,
2013-04-19 04:22:00,64.0,62.5,29.19,SSW,202,0.0,0.0,95,0.00,CLR,OVC,0.00,WeatherDisplay:10.37,2013-04-19 08:22:00,
2013-04-19 04:27:00,64.0,62.2,29.18,South,180,2.3,2.3,94,0.00,CLR,OVC,0.00,WeatherDisplay:10.37,2013-04-19 08:27:00,
2013-04-19 04:32:00,64.0,61.9,29.18,SSW,202,1.2,1.2,93,0.00,CLR,OVC,0.00,WeatherDisplay:10.37,2013-04-19 08:32:00,
2013-04-19 04:37:00,65.0,63.5,29.18,South,180,1.2,1.2,95,0.00,CLR,OVC,0.00,WeatherDisplay:10.37,2013-04-19 08:37:00,
2013-04-19 04:42:00,64.0,61.9,29.18,SE,135,1.2,1.2,93,0.00,CLR,OVC,0.00,WeatherDisplay:10.37,2013-04-19 08:42:00,
2013-04-19 04:47:00,65.0,63.5,29.17,South,180,0.0,0.0,95,0.00,CLR,OVC,0.00,WeatherDisplay:10.37,2013-04-19 08:47:00,
2013-04-19 04:52:00,64.0,61.9,29.17,WSW,247,0.0,0.0,93,0.00,CLR,OVC,0.00,WeatherDisplay:10.37,2013-04-19 08:52:00,
2013-04-19 04:57:00,65.0,62.9,29.18,SSW,202,1.2,1.2,93,0.00,CLR,OVC,0.00,WeatherDisplay:10.37,2013-04-19 08:57:00,
2013-04-19 05:02:00,64.0,61.0,29.18,South,180,3.0,3.0,90,0.00,CLR,OVC,0.00,WeatherDisplay:10.37,2013-04-19 09:02:00,
2013-04-19 05:07:00,64.0,61.6,29.17,SW,225,0.0,0.0,92,0.00,CLR,OVC,0.00,WeatherDisplay:10.37,2013-04-19 09:07:00,
2013-04-19 05:12:00,64.0,60.7,29.17,West,270,1.0,1.0,89,0.00,CLR,OVC,0.00,WeatherDisplay:10.37,2013-04-19 09:12:00,
2013-04-19 05:17:00,64.0,61.0,29.17,SW,225,0.0,0.0,90,0.00,CLR,OVC,0.00,WeatherDisplay:10.37,2013-04-19 09:17:00,
2013-04-19 05:22:00,64.0,60.4,29.17,SW,225,0.0,0.0,88,0.00,CLR,OVC,0.00,WeatherDisplay:10.37,2013-04-19 09:22:00,
2013-04-19 05:27:00,64.0,61.0,29.17,SSW,202,2.3,2.3,90,0.00,CLR,OVC,0.00,WeatherDisplay:10.37,2013-04-19 09:27:00,
2013-04-19 05:32:00,64.0,59.4,29.17,South,180,2.3,2.3,85,0.00,CLR,OVC,0.00,WeatherDisplay:10.37,2013-04-19 09:32:00,
2013-04-19 05:37:00,64.0,60.4,29.17,WSW,247,0.0,0.0,88,0.00,CLR,OVC,0.00,WeatherDisplay:10.37,2013-04-19 09:37:00,
2013-04-19 05:42:00,64.0,59.1,29.17,SSW,202,2.3,0.0,84,0.00,CLR,OVC,0.00,WeatherDisplay:10.37,2013-04-19 09:42:00,
2013-04-19 05:47:00,65.0,60.4,29.17,SW,225,0.0,0.0,85,0.00,CLR,OVC,0.00,WeatherDisplay:10.37,2013-04-19 09:47:00,
2013-04-19 05:52:00,64.0,58.1,29.17,South,180,2.0,2.0,81,0.00,CLR,OVC,0.00,WeatherDisplay:10.37,2013-04-19 09:52:00,
2013-04-19 05:57:00,65.0,59.7,29.17,SSW,202,5.8,5.8,83,0.00,CLR,OVC,0.00,WeatherDisplay:10.37,2013-04-19 09:57:00,
2013-04-19 06:02:00,64.0,56.6,29.17,SSE,157,1.2,1.2,77,0.00,CLR,OVC,0.00,WeatherDisplay:10.37,2013-04-19 10:02:00,
2013-04-19 06:07:00,65.0,58.3,29.17,South,180,1.2,1.2,79,0.00,CLR,OVC,0.00,WeatherDisplay:10.37,2013-04-19 10:07:00,
2013-04-19 06:12:00,64.0,56.3,29.17,South,180,2.3,2.3,76,0.00,CLR,OVC,0.00,WeatherDisplay:10.37,2013-04-19 10:12:00,
2013-04-19 06:17:00,65.0,58.3,29.17,ESE,112,1.2,1.2,79,0.00,CLR,OVC,0.00,WeatherDisplay:10.37,2013-04-19 10:17:00,
2013-04-19 06:22:00,64.0,55.5,29.17,SSW,202,0.0,0.0,74,0.00,CLR,OVC,0.00,WeatherDisplay:10.37,2013-04-19 10:22:00,
2013-04-19 06:27:00,65.0,58.3,29.17,SW,225,2.3,2.3,79,0.00,CLR,OVC,0.00,WeatherDisplay:10.37,2013-04-19 10:27:00,
2013-04-19 06:32:00,64.0,55.5,29.17,SSW,202,0.0,0.0,74,0.00,CLR,OVC,0.00,WeatherDisplay:10.37,2013-04-19 10:32:00,
2013-04-19 06:37:00,65.0,57.6,29.17,WSW,247,2.3,2.3,77,0.00,CLR,OVC,0.00,WeatherDisplay:10.37,2013-04-19 10:37:00,
2013-04-19 06:42:00,65.0,56.1,29.17,South,180,2.3,2.3,73,0.00,CLR,OVC,0.00,WeatherDisplay:10.37,2013-04-19 10:42:00,
2013-04-19 06:47:00,65.0,58.0,29.17,North,360,1.2,0.0,78,0.00,CLR,OVC,0.00,WeatherDisplay:10.37,2013-04-19 10:47:00,
2013-04-19 06:52:00,65.0,56.9,29.17,South,180,5.8,5.8,75,0.00,CLR,OVC,0.00,WeatherDisplay:10.37,2013-04-19 10:52:00,
2013-04-19 06:57:00,65.0,59.0,29.17,SSW,202,0.0,0.0,81,0.00,CLR,OVC,0.00,WeatherDisplay:10.37,2013-04-19 10:57:00,
2013-04-19 07:02:00,65.0,58.0,29.17,South,180,2.3,0.0,78,0.00,CLR,OVC,0.00,WeatherDisplay:10.37,2013-04-19 11:02:00,
2013-04-19 07:07:00,65.0,59.4,29.17,SW,225,2.3,2.3,82,0.00,CLR,OVC,0.00,WeatherDisplay:10.37,2013-04-19 11:07:00,
2013-04-19 07:12:00,65.0,58.7,29.17,NW,315,2.3,2.3,80,0.00,CLR,OVC,0.00,WeatherDisplay:10.37,2013-04-19 11:12:00,
2013-04-19 07:17:00,65.0,60.0,29.17,South,180,3.5,3.5,84,0.00,CLR,OVC,0.00,WeatherDisplay:10.37,2013-04-19 11:17:00,
2013-04-19 07:22:00,65.0,59.0,29.17,SE,135,4.6,4.6,81,0.00,CLR,OVC,0.00,WeatherDisplay:10.37,2013-04-19 11:22:00,
2013-04-19 07:28:00,66.0,61.7,29.17,SW,225,4.6,4.6,86,0.00,CLR,OVC,0.00,WeatherDisplay:10.37,2013-04-19 11:28:00,
2013-04-19 07:33:00,66.0,61.0,29.17,SW,225,0.0,0.0,84,0.00,CLR,OVC,0.00,WeatherDisplay:10.37,2013-04-19 11:33:00,
2013-04-19 07:38:00,66.0,62.3,29.17,ENE,67,1.2,0.0,88,0.00,CLR,OVC,0.00,WeatherDisplay:10.37,2013-04-19 11:38:00,
2013-04-19 07:43:00,66.0,63.0,29.17,SW,225,2.3,2.3,90,0.00,CLR,OVC,0.00,WeatherDisplay:10.37,2013-04-19 11:43:00,
2013-04-19 07:48:00,66.0,63.9,29.17,ENE,67,3.5,3.5,93,0.00,CLR,OVC,0.00,WeatherDisplay:10.37,2013-04-19 11:48:00,
2013-04-19 07:53:00,66.0,64.2,29.17,SE,135,3.5,3.5,94,0.00,CLR,OVC,0.00,WeatherDisplay:10.37,2013-04-19 11:53:00,
2013-04-19 07:58:00,67.0,65.8,29.16,ESE,112,0.0,0.0,96,0.00,CLR,OVC,0.00,WeatherDisplay:10.37,2013-04-19 11:58:00,
2013-04-19 08:03:00,67.0,65.5,29.16,South,180,3.5,3.5,95,0.00,CLR,OVC,0.00,WeatherDisplay:10.37,2013-04-19 12:03:00,
2013-04-19 08:08:00,67.0,66.4,29.17,West,270,3.5,3.5,98,0.00,CLR,OVC,0.00,WeatherDisplay:10.37,2013-04-19 12:08:00,
2013-04-19 08:13:00,67.0,66.4,29.17,West,270,3.5,3.5,98,0.00,CLR,OVC,0.00,WeatherDisplay:10.37,2013-04-19 12:13:00,
2013-04-19 08:18:00,67.0,67.0,29.17,SSE,157,3.5,3.5,100,0.00,CLR,OVC,0.00,WeatherDisplay:10.37,2013-04-19 12:18:00,
2013-04-19 08:23:00,67.0,67.0,29.17,SE,135,5.8,5.8,100,0.00,CLR,OVC,0.00,WeatherDisplay:10.37,2013-04-19 12:23:00,
2013-04-19 08:28:00,67.0,67.0,29.17,South,180,3.5,3.5,100,0.00,CLR,OVC,0.00,WeatherDisplay:10.37,2013-04-19 12:28:00,
2013-04-19 08:33:00,67.0,67.0,29.17,South,180,0.0,0.0,100,0.00,CLR,OVC,0.00,WeatherDisplay:10.37,2013-04-19 12:33:00,
2013-04-19 08:38:00,67.0,67.0,29.17,South,180,6.0,6.0,100,0.00,CLR,OVC,0.00,WeatherDisplay:10.37,2013-04-19 12:38:00,
2013-04-19 08:43:00,67.0,67.0,29.17,South,180,3.5,3.5,100,0.00,CLR,OVC,0.00,WeatherDisplay:10.37,2013-04-19 12:43:00,
2013-04-19 08:48:00,68.0,68.0,29.16,South,180,1.2,1.2,100,0.00,CLR,OVC,0.00,WeatherDisplay:10.37,2013-04-19 12:48:00,
2013-04-19 08:53:00,68.0,68.0,29.16,WSW,247,4.6,4.6,100,0.00,CLR,OVC,0.00,WeatherDisplay:10.37,2013-04-19 12:53:00,
2013-04-19 08:58:00,68.0,68.0,29.17,WNW,292,3.5,3.5,100,0.00,CLR,OVC,0.00,WeatherDisplay:10.37,2013-04-19 12:58:00,
2013-04-19 09:03:00,68.0,68.0,29.17,WSW,247,3.5,3.5,100,0.00,CLR,OVC,0.00,WeatherDisplay:10.37,2013-04-19 13:03:00,
2013-04-19 09:08:00,69.0,68.4,29.17,West,270,5.0,5.0,98,0.00,CLR,OVC,0.00,WeatherDisplay:10.37,2013-04-19 13:08:00,
2013-04-19 09:13:00,69.0,67.5,29.17,East,90,4.6,4.6,95,0.00,CLR,OVC,0.00,WeatherDisplay:10.37,2013-04-19 13:13:00,
2013-04-19 09:18:00,69.0,67.5,29.17,WNW,292,5.8,5.8,95,0.00,CLR,OVC,0.00,WeatherDisplay:10.37,2013-04-19 13:18:00,
2013-04-19 09:23:00,69.0,67.5,29.17,WSW,247,4.6,4.6,95,0.00,CLR,OVC,0.00,WeatherDisplay:10.37,2013-04-19 13:23:00,
2013-04-19 09:28:00,69.0,67.5,29.17,South,180,3.5,3.5,95,0.00,CLR,OVC,0.00,WeatherDisplay:10.37,2013-04-19 13:28:00,
2013-04-19 09:33:00,69.0,67.2,29.17,West,270,4.6,4.6,94,0.00,CLR,OVC,0.00,WeatherDisplay:10.37,2013-04-19 13:33:00,
2013-04-19 09:38:00,69.0,67.5,29.17,SW,225,2.3,2.3,95,0.00,CLR,OVC,0.00,WeatherDisplay:10.37,2013-04-19 13:38:00,
2013-04-19 09:43:00,69.0,67.5,29.17,North,360,3.5,3.5,95,0.00,CLR,OVC,0.00,WeatherDisplay:10.37,2013-04-19 13:43:00,
2013-04-19 09:48:00,69.0,67.5,29.16,WSW,247,3.5,3.5,95,0.00,CLR,OVC,0.00,WeatherDisplay:10.37,2013-04-19 13:48:00,
2013-04-19 09:53:00,69.0,67.5,29.16,SSE,157,3.5,3.5,95,0.00,CLR,OVC,0.00,WeatherDisplay:10.37,2013-04-19 13:53:00,
2013-04-19 09:58:00,69.0,67.5,29.15,ESE,112,5.8,5.8,95,0.00,CLR,OVC,0.00,WeatherDisplay:10.37,2013-04-19 13:58:00,
2013-04-19 10:03:00,69.0,67.5,29.15,SW,225,3.5,3.5,95,0.00,CLR,OVC,0.00,WeatherDisplay:10.37,2013-04-19 14:03:00,
2013-04-19 10:08:00,69.0,67.2,29.15,South,180,3.5,3.5,94,0.00,CLR,OVC,0.00,WeatherDisplay:10.37,2013-04-19 14:08:00,
2013-04-19 10:13:00,69.0,67.2,29.15,SSE,157,6.0,6.0,94,0.00,CLR,OVC,0.00,WeatherDisplay:10.37,2013-04-19 14:13:00,
2013-04-19 10:18:00,70.0,68.8,29.15,South,180,5.8,5.8,96,0.00,CLR,OVC,0.00,WeatherDisplay:10.37,2013-04-19 14:18:00,
2013-04-19 10:23:00,70.0,68.8,29.15,South,180,2.3,2.3,96,0.00,CLR,OVC,0.00,WeatherDisplay:10.37,2013-04-19 14:23:00,
2013-04-19 10:28:00,70.0,68.8,29.15,SW,225,3.5,3.5,96,0.00,CLR,OVC,0.00,WeatherDisplay:10.37,2013-04-19 14:28:00,
2013-04-19 10:33:00,70.0,68.2,29.15,SSE,157,3.5,3.5,94,0.00,CLR,OVC,0.00,WeatherDisplay:10.37,2013-04-19 14:33:00,
2013-04-19 10:38:00,71.0,69.2,29.15,SSW,202,0.0,0.0,94,0.00,CLR,OVC,0.00,WeatherDisplay:10.37,2013-04-19 14:38:00,
2013-04-19 10:43:00,71.0,68.6,29.15,West,270,2.3,2.3,92,0.00,CLR,OVC,0.00,WeatherDisplay:10.37,2013-04-19 14:43:00,
2013-04-19 10:48:00,72.0,69.5,29.15,West,270,4.0,4.0,92,0.00,CLR,OVC,0.00,WeatherDisplay:10.37,2013-04-19 14:48:00,
2013-04-19 10:53:00,73.0,68.9,29.15,SW,225,3.5,3.5,87,0.00,CLR,OVC,0.00,WeatherDisplay:10.37,2013-04-19 14:53:00,
2013-04-19 10:58:00,73.0,67.5,29.14,SSE,157,3.0,3.0,83,0.00,CLR,OVC,0.00,WeatherDisplay:10.37,2013-04-19 14:58:00,
2013-04-19 11:03:00,74.0,68.9,29.14,West,270,3.5,3.5,84,0.00,CLR,OVC,0.00,WeatherDisplay:10.37,2013-04-19 15:03:00,
2013-04-19 11:08:00,73.0,67.2,29.14,SSW,202,6.9,6.9,82,0.00,CLR,OVC,0.00,WeatherDisplay:10.37,2013-04-19 15:08:00,
2013-04-19 11:13:00,73.0,68.2,29.14,NE,45,2.3,2.3,85,0.00,CLR,OVC,0.00,WeatherDisplay:10.37,2013-04-19 15:13:00,
2013-04-19 11:18:00,73.0,67.9,29.15,SSE,157,3.0,3.0,84,0.00,CLR,OVC,0.00,WeatherDisplay:10.37,2013-04-19 15:18:00,
2013-04-19 11:23:00,73.0,68.2,29.15,SSE,157,3.5,3.5,85,0.00,CLR,OVC,0.00,WeatherDisplay:10.37,2013-04-19 15:23:00,
2013-04-19 11:28:00,73.0,68.2,29.14,South,180,1.2,1.2,85,0.00,CLR,OVC,0.00,WeatherDisplay:10.37,2013-04-19 15:28:00,
2013-04-19 11:33:00,73.0,68.2,29.14,West,270,1.2,0.0,85,0.00,CLR,OVC,0.00,WeatherDisplay:10.37,2013-04-19 15:33:00,
2013-04-19 11:38:00,74.0,68.2,29.13,SW,225,4.6,4.6,82,0.00,CLR,OVC,0.00,WeatherDisplay:10.37,2013-04-19 15:38:00,
2013-04-19 11:43:00,74.0,67.4,29.13,South,180,6.9,6.9,80,0.00,CLR,OVC,0.00,WeatherDisplay:10.37,2013-04-19 15:43:00,
2013-04-19 11:48:00,75.0,68.0,29.12,NE,45,3.5,3.5,79,0.00,CLR,OVC,0.00,WeatherDisplay:10.37,2013-04-19 15:48:00,
2013-04-19 11:53:00,75.0,69.1,29.12,West,270,3.5,3.5,82,0.00,CLR,OVC,0.00,WeatherDisplay:10.37,2013-04-19 15:53:00,
2013-04-19 11:58:00,75.0,66.9,29.11,WSW,247,6.9,6.9,76,0.00,CLR,OVC,0.00,WeatherDisplay:10.37,2013-04-19 15:58:00,
2013-04-19 12:03:00,75.0,66.9,29.11,West,270,5.8,5.8,76,0.00,CLR,OVC,0.00,WeatherDisplay:10.37,2013-04-19 16:03:00,
2013-04-19 12:08:00,76.0,67.5,29.10,SSE,157,3.5,3.5,75,0.00,CLR,OVC,0.00,WeatherDisplay:10.37,2013-04-19 16:08:00,
2013-04-19 12:13:00,75.0,66.5,29.10,SW,225,3.5,3.5,75,0.00,CLR,OVC,0.00,WeatherDisplay:10.37,2013-04-19 16:13:00,
2013-04-19 12:18:00,75.0,66.5,29.10,West,270,6.9,6.9,75,0.00,CLR,OVC,0.00,WeatherDisplay:10.37,2013-04-19 16:18:00,
2013-04-19 12:23:00,76.0,67.1,29.10,South,180,6.9,6.9,74,0.00,CLR,OVC,0.00,WeatherDisplay:10.37,2013-04-19 16:23:00,
2013-04-19 12:28:00,76.0,67.1,29.09,SW,225,5.8,5.8,74,0.00,CLR,OVC,0.00,WeatherDisplay:10.37,2013-04-19 16:28:00,
2013-04-19 12:33:00,75.0,66.1,29.09,South,180,2.3,2.3,74,0.00,CLR,OVC,0.00,WeatherDisplay:10.37,2013-04-19 16:33:00,
2013-04-19 12:38:00,75.0,66.5,29.09,WNW,292,3.5,3.5,75,0.00,CLR,OVC,0.00,WeatherDisplay:10.37,2013-04-19 16:38:00,
2013-04-19 12:43:00,75.0,66.9,29.09,WSW,247,1.2,1.2,76,0.00,CLR,OVC,0.00,WeatherDisplay:10.37,2013-04-19 16:43:00,
2013-04-19 12:49:00,76.0,67.1,29.08,SSW,202,6.9,6.9,74,0.00,CLR,OVC,0.00,WeatherDisplay:10.37,2013-04-19 16:49:00,
2013-04-19 12:54:00,76.0,66.7,29.08,North,360,4.6,0.0,73,0.00,CLR,OVC,0.00,WeatherDisplay:10.37,2013-04-19 16:54:00,
2013-04-19 12:59:00,77.0,67.3,29.07,West,270,0.0,0.0,72,0.00,CLR,OVC,0.00,WeatherDisplay:10.37,2013-04-19 16:59:00,
2013-04-19 13:04:00,78.0,67.4,29.07,SSE,157,0.0,0.0,70,0.00,CLR,OVC,0.00,WeatherDisplay:10.37,2013-04-19 17:04:00,
2013-04-19 13:09:00,78.0,66.6,29.05,SW,225,9.2,9.2,68,0.00,CLR,OVC,0.00,WeatherDisplay:10.37,2013-04-19 17:09:00,
2013-04-19 13:14:00,79.0,68.0,29.05,ENE,67,0.0,0.0,69,0.00,CLR,OVC,0.00,WeatherDisplay:10.37,2013-04-19 17:14:00,
2013-04-19 13:19:00,78.0,66.6,29.05,SSE,157,0.0,0.0,68,0.00,CLR,OVC,0.00,WeatherDisplay:10.37,2013-04-19 17:19:00,
2013-04-19 13:24:00,78.0,65.7,29.05,SSW,202,10.4,10.4,66,0.00,CLR,OVC,0.00,WeatherDisplay:10.37,2013-04-19 17:24:00,
2013-04-19 13:29:00,78.0,65.7,29.05,South,180,5.8,5.8,66,0.00,CLR,OVC,0.00,WeatherDisplay:10.37,2013-04-19 17:29:00,
2013-04-19 13:34:00,79.0,66.7,29.05,West,270,0.0,0.0,66,0.00,CLR,OVC,0.00,WeatherDisplay:10.37,2013-04-19 17:34:00,
2013-04-19 13:39:00,79.0,66.2,29.04,South,180,0.0,0.0,65,0.00,CLR,OVC,0.00,WeatherDisplay:10.37,2013-04-19 17:39:00,
2013-04-19 13:44:00,79.0,66.7,29.04,WNW,292,0.0,0.0,66,0.00,CLR,OVC,0.00,WeatherDisplay:10.37,2013-04-19 17:44:00,
2013-04-19 13:49:00,78.0,65.7,29.05,NW,315,5.8,5.8,66,0.00,CLR,OVC,0.00,WeatherDisplay:10.37,2013-04-19 17:49:00,
2013-04-19 13:54:00,77.0,66.0,29.05,WSW,247,2.3,2.3,69,0.00,CLR,OVC,0.00,WeatherDisplay:10.37,2013-04-19 17:54:00,
2013-04-19 13:59:00,77.0,66.0,29.05,WNW,292,3.5,3.5,69,0.00,CLR,OVC,0.00,WeatherDisplay:10.37,2013-04-19 17:59:00,
2013-04-19 14:04:00,77.0,66.5,29.05,WNW,292,3.5,3.5,70,0.00,CLR,OVC,0.00,WeatherDisplay:10.37,2013-04-19 18:04:00,
2013-04-19 14:09:00,77.0,66.9,29.04,SW,225,2.3,2.3,71,0.00,CLR,OVC,0.00,WeatherDisplay:10.37,2013-04-19 18:09:00,
2013-04-19 14:14:00,77.0,66.5,29.04,SE,135,0.0,0.0,70,0.00,CLR,OVC,0.00,WeatherDisplay:10.37,2013-04-19 18:14:00,
2013-04-19 14:19:00,78.0,67.0,29.03,WSW,247,3.5,3.5,69,0.00,CLR,OVC,0.00,WeatherDisplay:10.37,2013-04-19 18:19:00,
2013-04-19 14:24:00,78.0,67.0,29.03,South,180,3.5,3.5,69,0.00,CLR,OVC,0.00,WeatherDisplay:10.37,2013-04-19 18:24:00,
2013-04-19 14:29:00,79.0,68.0,29.02,SSW,202,0.0,0.0,69,0.00,CLR,OVC,0.00,WeatherDisplay:10.37,2013-04-19 18:29:00,
2013-04-19 14:34:00,79.0,67.1,29.02,SW,225,0.0,0.0,67,0.00,CLR,OVC,0.00,WeatherDisplay:10.37,2013-04-19 18:34:00,
2013-04-19 14:39:00,79.0,66.2,29.01,SSW,202,9.2,9.2,65,0.00,CLR,OVC,0.00,WeatherDisplay:10.37,2013-04-19 18:39:00,
2013-04-19 14:44:00,79.0,66.7,29.01,SW,225,1.2,0.0,66,0.00,CLR,OVC,0.00,WeatherDisplay:10.37,2013-04-19 18:44:00,
2013-04-19 14:49:00,79.0,66.7,29.01,SSW,202,3.5,3.5,66,0.00,CLR,OVC,0.00,WeatherDisplay:10.37,2013-04-19 18:49:00,
2013-04-19 14:54:00,79.0,66.2,29.01,South,180,8.1,8.1,65,0.00,CLR,OVC,0.00,WeatherDisplay:10.37,2013-04-19 18:54:00,
2013-04-19 14:59:00,79.0,67.1,29.00,SW,225,0.0,0.0,67,0.00,CLR,OVC,0.00,WeatherDisplay:10.37,2013-04-19 18:59:00,
2013-04-19 15:04:00,78.0,66.2,29.00,East,90,4.6,0.0,67,0.00,CLR,OVC,0.00,WeatherDisplay:10.37,2013-04-19 19:04:00,
2013-04-19 15:09:00,78.0,66.2,29.00,SSW,202,4.6,4.6,67,0.00,CLR,OVC,0.00,WeatherDisplay:10.37,2013-04-19 19:09:00,
2013-04-19 15:14:00,78.0,66.2,29.00,East,90,2.3,2.3,67,0.00,CLR,OVC,0.00,WeatherDisplay:10.37,2013-04-19 19:14:00,
2013-04-19 15:19:00,79.0,67.1,28.99,South,180,3.5,3.5,67,0.00,CLR,OVC,0.00,WeatherDisplay:10.37,2013-04-19 19:19:00,
2013-04-19 15:24:00,79.0,66.7,28.99,WNW,292,2.3,0.0,66,0.00,CLR,OVC,0.00,WeatherDisplay:10.37,2013-04-19 19:24:00,
2013-04-19 15:29:00,79.0,67.1,28.99,SSW,202,3.5,3.5,67,0.00,CLR,OVC,0.00,WeatherDisplay:10.37,2013-04-19 19:29:00,
2013-04-19 15:34:00,79.0,66.2,28.99,South,180,0.0,0.0,65,0.00,CLR,OVC,0.00,WeatherDisplay:10.37,2013-04-19 19:34:00,
2013-04-19 15:39:00,79.0,66.2,28.98,WNW,292,5.8,5.8,65,0.00,CLR,OVC,0.00,WeatherDisplay:10.37,2013-04-19 19:39:00,
2013-04-19 15:44:00,78.0,65.7,28.98,SSE,157,1.2,1.2,66,0.00,CLR,OVC,0.00,WeatherDisplay:10.37,2013-04-19 19:44:00,
2013-04-19 15:49:00,78.0,65.7,28.96,SSE,157,3.5,3.5,66,0.00,CLR,OVC,0.00,WeatherDisplay:10.37,2013-04-19 19:49:00,
2013-04-19 15:54:00,79.0,66.7,28.96,West,270,1.2,1.2,66,0.00,CLR,OVC,0.00,WeatherDisplay:10.37,2013-04-19 19:54:00,
2013-04-19 15:59:00,79.0,66.2,28.96,East,90,5.8,5.8,65,0.00,CLR,OVC,0.00,WeatherDisplay:10.37,2013-04-19 19:59:00,
2013-04-19 16:04:00,79.0,64.9,28.96,SSE,157,6.9,6.9,62,0.00,CLR,OVC,0.00,WeatherDisplay:10.37,2013-04-19 20:04:00,
2013-04-19 16:09:00,80.0,65.8,28.96,West,270,0.0,0.0,62,0.00,CLR,OVC,0.00,WeatherDisplay:10.37,2013-04-19 20:09:00,
2013-04-19 16:14:00,80.0,65.3,28.96,West,270,8.0,8.0,61,0.00,CLR,OVC,0.00,WeatherDisplay:10.37,2013-04-19 20:14:00,
2013-04-19 16:19:00,80.0,65.8,28.96,SW,225,4.6,4.6,62,0.00,CLR,OVC,0.00,WeatherDisplay:10.37,2013-04-19 20:19:00,
2013-04-19 16:24:00,80.0,66.7,28.96,WSW,247,3.0,3.0,64,0.00,CLR,OVC,0.00,WeatherDisplay:10.37,2013-04-19 20:24:00,
2013-04-19 16:29:00,78.0,69.0,28.97,SW,225,3.5,3.5,74,0.00,CLR,OVC,0.00,WeatherDisplay:10.37,2013-04-19 20:29:00,
2013-04-19 16:34:00,76.0,67.5,28.97,WSW,247,1.2,1.2,75,0.00,CLR,OVC,0.00,WeatherDisplay:10.37,2013-04-19 20:34:00,
2013-04-19 16:39:00,75.0,67.7,28.96,ESE,112,3.5,0.0,78,0.00,CLR,OVC,0.00,WeatherDisplay:10.37,2013-04-19 20:39:00,
2013-04-19 16:44:00,75.0,68.4,28.96,ESE,112,3.5,3.5,80,0.00,CLR,OVC,0.00,WeatherDisplay:10.37,2013-04-19 20:44:00,
2013-04-19 16:49:00,74.0,67.8,28.95,SW,225,2.3,2.3,81,0.00,CLR,OVC,0.00,WeatherDisplay:10.37,2013-04-19 20:49:00,
2013-04-19 16:54:00,74.0,68.5,28.95,SSW,202,0.0,0.0,83,0.00,CLR,OVC,0.00,WeatherDisplay:10.37,2013-04-19 20:54:00,
2013-04-19 16:59:00,74.0,68.9,28.96,WSW,247,2.3,0.0,84,0.00,CLR,OVC,0.00,WeatherDisplay:10.37,2013-04-19 20:59:00,
2013-04-19 17:04:00,74.0,68.2,28.96,SE,135,2.3,0.0,82,0.00,CLR,OVC,0.00,WeatherDisplay:10.37,2013-04-19 21:04:00,
2013-04-19 17:09:00,74.0,68.5,28.95,SSW,202,2.3,0.0,83,0.00,CLR,OVC,0.00,WeatherDisplay:10.37,2013-04-19 21:09:00,
2013-04-19 17:14:00,75.0,68.4,28.95,West,270,2.3,2.3,80,0.00,CLR,OVC,0.00,WeatherDisplay:10.37,2013-04-19 21:14:00,
2013-04-19 17:19:00,75.0,68.4,28.95,ENE,67,2.3,2.3,80,0.00,CLR,OVC,0.00,WeatherDisplay:10.37,2013-04-19 21:19:00,
2013-04-19 17:24:00,75.0,66.9,28.95,NNW,337,0.0,0.0,76,0.00,CLR,OVC,0.00,WeatherDisplay:10.37,2013-04-19 21:24:00,
2013-04-19 17:29:00,76.0,67.9,28.95,South,180,1.2,0.0,76,0.00,CLR,OVC,0.00,WeatherDisplay:10.37,2013-04-19 21:29:00,
2013-04-19 17:34:00,76.0,67.9,28.95,SSE,157,3.5,3.5,76,0.00,CLR,OVC,0.00,WeatherDisplay:10.37,2013-04-19 21:34:00,
2013-04-19 17:39:00,76.0,67.1,28.95,SW,225,4.6,4.6,74,0.00,CLR,OVC,0.00,WeatherDisplay:10.37,2013-04-19 21:39:00,
2013-04-19 17:44:00,76.0,67.1,28.95,South,180,2.3,2.3,74,0.00,CLR,OVC,0.00,WeatherDisplay:10.37,2013-04-19 21:44:00,
2013-04-19 17:49:00,76.0,66.7,28.95,West,270,1.2,1.2,73,0.00,CLR,OVC,0.00,WeatherDisplay:10.37,2013-04-19 21:49:00,
2013-04-19 17:54:00,76.0,66.7,28.95,West,270,1.0,1.0,73,0.00,CLR,OVC,0.00,WeatherDisplay:10.37,2013-04-19 21:54:00,
2013-04-19 18:13:00,65.0,64.4,29.00,NW,315,1.2,1.2,98,0.18,RA,OVC,0.18,WeatherDisplay:10.37,2013-04-19 22:13:00,
2013-04-19 18:18:00,65.0,64.1,29.01,WNW,292,8.1,8.1,97,0.18,,OVC,0.18,WeatherDisplay:10.37,2013-04-19 22:18:00,
2013-04-19 18:23:00,65.0,63.8,29.01,WSW,247,6.9,6.9,96,0.22,RA,OVC,0.22,WeatherDisplay:10.37,2013-04-19 22:23:00,
2013-04-19 18:28:00,65.0,62.0,29.01,West,270,11.5,11.5,90,0.27,RA,OVC,0.27,WeatherDisplay:10.37,2013-04-19 22:28:00,
2013-04-19 18:33:00,65.0,61.0,29.01,West,270,4.6,4.6,87,0.28,RA,OVC,0.28,WeatherDisplay:10.37,2013-04-19 22:33:00,
2013-04-19 18:38:00,65.0,59.0,29.03,West,270,6.9,6.9,81,0.31,RA,OVC,0.31,WeatherDisplay:10.37,2013-04-19 22:38:00,
2013-04-19 18:43:00,65.0,54.2,29.03,NW,315,5.8,5.8,68,0.41,RA,OVC,0.42,WeatherDisplay:10.37,2013-04-19 22:43:00,
2013-04-19 18:48:00,65.0,56.5,29.03,NNW,337,6.9,6.9,74,0.47,RA,OVC,0.47,WeatherDisplay:10.37,2013-04-19 22:48:00,
2013-04-19 18:53:00,64.0,54.0,29.03,WSW,247,3.5,3.5,70,0.50,RA,OVC,0.50,WeatherDisplay:10.37,2013-04-19 22:53:00,
2013-04-19 18:58:00,64.0,52.8,29.04,SW,225,3.5,3.5,67,0.52,RA,OVC,0.52,WeatherDisplay:10.37,2013-04-19 22:58:00,
2013-04-19 19:03:00,64.0,52.8,29.04,North,360,3.5,3.5,67,0.46,RA,OVC,0.53,WeatherDisplay:10.37,2013-04-19 23:03:00,
2013-04-19 19:08:00,64.0,52.0,29.03,NNW,337,1.2,1.2,65,0.36,RA,OVC,0.54,WeatherDisplay:10.37,2013-04-19 23:08:00,
2013-04-19 19:13:00,64.0,52.0,29.03,NNW,337,0.0,0.0,65,0.38,RA,OVC,0.56,WeatherDisplay:10.37,2013-04-19 23:13:00,
2013-04-19 19:18:00,64.0,52.0,29.03,West,270,0.0,0.0,65,0.40,RA,OVC,0.58,WeatherDisplay:10.37,2013-04-19 23:18:00,
2013-04-19 19:23:00,64.0,52.0,29.03,East,90,0.0,0.0,65,0.37,RA,OVC,0.59,WeatherDisplay:10.37,2013-04-19 23:23:00,
2013-04-19 19:28:00,64.0,51.6,29.03,WSW,247,0.0,0.0,64,0.34,RA,OVC,0.61,WeatherDisplay:10.37,2013-04-19 23:28:00,
2013-04-19 19:33:00,64.0,51.6,29.03,SSW,202,1.2,0.0,64,0.34,RA,OVC,0.62,WeatherDisplay:10.37,2013-04-19 23:33:00,
2013-04-19 19:38:00,64.0,51.6,29.01,South,180,1.2,0.0,64,0.31,RA,OVC,0.62,WeatherDisplay:10.37,2013-04-19 23:38:00,
2013-04-19 19:43:00,64.0,51.6,29.01,South,180,0.0,0.0,64,0.21,CLR,OVC,0.62,WeatherDisplay:10.37,2013-04-19 23:43:00,
2013-04-19 19:48:00,64.0,51.6,29.02,WSW,247,0.0,0.0,64,0.15,CLR,OVC,0.62,WeatherDisplay:10.37,2013-04-19 23:48:00,
2013-04-19 19:53:00,64.0,52.0,29.02,West,270,0.0,0.0,65,0.13,RA,OVC,0.63,WeatherDisplay:10.37,2013-04-19 23:53:00,
2013-04-19 19:58:00,64.0,51.6,29.03,West,270,1.2,1.2,64,0.11,RA,OVC,0.63,WeatherDisplay:10.37,2013-04-19 23:58:00,
2013-04-19 20:03:00,64.0,52.0,29.03,West,270,0.0,0.0,65,0.10,,OVC,0.63,WeatherDisplay:10.37,2013-04-20 00:03:00,
2013-04-19 20:08:00,64.0,51.6,29.03,ENE,67,0.0,0.0,64,0.10,RA,OVC,0.64,WeatherDisplay:10.37,2013-04-20 00:08:00,
2013-04-19 20:13:00,64.0,51.6,29.03,ENE,67,0.0,0.0,64,0.08,RA,OVC,0.64,WeatherDisplay:10.37,2013-04-20 00:13:00,
2013-04-19 20:18:00,64.0,51.6,29.04,SSE,157,2.3,2.3,64,0.06,CLR,OVC,0.64,WeatherDisplay:10.37,2013-04-20 00:18:00,
2013-04-19 20:23:00,64.0,51.6,29.04,ESE,112,0.0,0.0,64,0.06,RA,OVC,0.65,WeatherDisplay:10.37,2013-04-20 00:23:00,
2013-04-19 20:28:00,64.0,51.6,29.04,SSW,202,1.2,0.0,64,0.05,RA,OVC,0.66,WeatherDisplay:10.37,2013-04-20 00:28:00,
2013-04-19 20:33:00,64.0,51.6,29.04,South,180,3.5,3.5,64,0.04,RA,OVC,0.66,WeatherDisplay:10.37,2013-04-20 00:33:00,
2013-04-19 20:38:00,64.0,51.6,29.04,SE,135,0.0,0.0,64,0.05,RA,OVC,0.67,WeatherDisplay:10.37,2013-04-20 00:38:00,
2013-04-19 20:43:00,64.0,51.6,29.04,West,270,3.5,3.5,64,0.06,RA,OVC,0.68,WeatherDisplay:10.37,2013-04-20 00:43:00,
2013-04-19 20:48:00,64.0,51.1,29.05,SSW,202,3.5,0.0,63,0.06,RA,OVC,0.68,WeatherDisplay:10.37,2013-04-20 00:48:00,
2013-04-19 20:53:00,64.0,51.6,29.05,SSW,202,0.0,0.0,64,0.05,,OVC,0.69,WeatherDisplay:10.37,2013-04-20 00:53:00,
2013-04-19 20:58:00,64.0,51.1,29.05,ENE,67,2.3,2.3,63,0.06,RA,OVC,0.69,WeatherDisplay:10.37,2013-04-20 00:58:00,
2013-04-19 21:03:00,64.0,51.1,29.05,SW,225,0.0,0.0,63,0.07,RA,OVC,0.70,WeatherDisplay:10.37,2013-04-20 01:03:00,
2013-04-19 21:08:00,64.0,51.1,29.05,SSW,202,1.2,0.0,63,0.07,RA,OVC,0.71,WeatherDisplay:10.37,2013-04-20 01:08:00,
2013-04-19 21:13:00,63.0,50.2,29.05,West,270,2.3,0.0,63,0.08,RA,OVC,0.72,WeatherDisplay:10.37,2013-04-20 01:13:00,
2013-04-19 21:18:00,63.0,50.2,29.05,North,360,3.5,3.5,63,0.08,RA,OVC,0.72,WeatherDisplay:10.37,2013-04-20 01:18:00,
2013-04-19 21:23:00,63.0,49.8,29.05,WNW,292,1.2,1.2,62,0.08,RA,OVC,0.73,WeatherDisplay:10.37,2013-04-20 01:23:00,
2013-04-19 21:28:00,63.0,50.2,29.05,WSW,247,2.3,2.3,63,0.07,RA,OVC,0.73,WeatherDisplay:10.37,2013-04-20 01:28:00,
2013-04-19 21:33:00,63.0,49.8,29.05,SW,225,1.2,0.0,62,0.08,RA,OVC,0.74,WeatherDisplay:10.37,2013-04-20 01:33:00,
2013-04-19 21:38:00,63.0,49.8,29.05,ENE,67,4.6,4.6,62,0.07,RA,OVC,0.74,WeatherDisplay:10.37,2013-04-20 01:38:00,
2013-04-19 21:43:00,63.0,50.2,29.05,West,270,3.5,3.5,63,0.06,CLR,OVC,0.74,WeatherDisplay:10.37,2013-04-20 01:43:00,
2013-04-19 21:48:00,63.0,49.8,29.06,NNE,22,1.2,1.2,62,0.07,RA,OVC,0.75,WeatherDisplay:10.37,2013-04-20 01:48:00,
2013-04-19 21:53:00,63.0,50.2,29.06,SW,225,1.2,0.0,63,0.08,RA,OVC,0.76,WeatherDisplay:10.37,2013-04-20 01:53:00,
2013-04-19 21:58:00,63.0,50.6,29.05,WNW,292,1.2,1.2,64,0.07,RA,OVC,0.76,WeatherDisplay:10.37,2013-04-20 01:58:00,
2013-04-19 22:03:00,63.0,50.2,29.05,SSW,202,0.0,0.0,63,0.06,,OVC,0.76,WeatherDisplay:10.37,2013-04-20 02:03:00,
2013-04-19 22:08:00,63.0,50.2,29.05,SSW,202,1.2,0.0,63,0.05,CLR,OVC,0.77,WeatherDisplay:10.37,2013-04-20 02:08:00,
2013-04-19 22:13:00,63.0,50.6,29.05,SSW,202,1.2,1.2,64,0.05,RA,OVC,0.77,WeatherDisplay:10.37,2013-04-20 02:13:00,
2013-04-19 22:18:00,63.0,50.2,29.05,South,180,1.2,1.2,63,0.06,RA,OVC,0.78,WeatherDisplay:10.37,2013-04-20 02:18:00,
2013-04-19 22:23:00,63.0,50.6,29.05,South,180,0.0,0.0,64,0.05,RA,OVC,0.78,WeatherDisplay:10.37,2013-04-20 02:23:00,
2013-04-19 22:28:00,63.0,50.2,29.05,ESE,112,0.0,0.0,63,0.06,RA,OVC,0.79,WeatherDisplay:10.37,2013-04-20 02:28:00,
2013-04-19 22:33:00,63.0,50.2,29.05,East,90,3.0,3.0,63,0.05,RA,OVC,0.79,WeatherDisplay:10.37,2013-04-20 02:33:00,
2013-04-19 22:38:00,63.0,50.2,29.03,SW,225,3.5,0.0,63,0.06,RA,OVC,0.80,WeatherDisplay:10.37,2013-04-20 02:38:00,
2013-04-19 22:43:00,63.0,50.2,29.03,WSW,247,1.2,0.0,63,0.06,RA,OVC,0.80,WeatherDisplay:10.37,2013-04-20 02:43:00,
2013-04-19 22:48:00,63.0,49.8,29.03,South,180,1.2,0.0,62,0.06,RA,OVC,0.81,WeatherDisplay:10.37,2013-04-20 02:48:00,
2013-04-19 22:53:00,63.0,50.2,29.03,NW,315,0.0,0.0,63,0.05,RA,OVC,0.81,WeatherDisplay:10.37,2013-04-20 02:53:00,
2013-04-19 22:59:00,63.0,49.8,29.03,SSW,202,0.0,0.0,62,0.05,,OVC,0.81,WeatherDisplay:10.37,2013-04-20 02:59:00,
2013-04-19 23:04:00,63.0,49.8,29.03,WNW,292,2.3,2.3,62,0.06,RA,OVC,0.82,WeatherDisplay:10.37,2013-04-20 03:04:00,
2013-04-19 23:09:00,63.0,49.8,29.03,SW,225,7.0,7.0,62,0.06,RA,OVC,0.82,WeatherDisplay:10.37,2013-04-20 03:09:00,
2013-04-19 23:14:00,62.0,48.8,29.03,SSE,157,5.8,5.8,62,0.05,,OVC,0.82,WeatherDisplay:10.37,2013-04-20 03:14:00,
2013-04-19 23:19:00,62.0,49.3,29.04,West,270,5.0,5.0,63,0.04,CLR,OVC,0.82,WeatherDisplay:10.37,2013-04-20 03:19:00,
2013-04-19 23:24:00,62.0,48.4,29.04,West,270,3.5,3.5,61,0.04,CLR,OVC,0.82,WeatherDisplay:10.37,2013-04-20 03:24:00,
2013-04-19 23:29:00,62.0,48.8,29.04,WSW,247,3.5,3.5,62,0.03,CLR,OVC,0.82,WeatherDisplay:10.37,2013-04-20 03:29:00,
2013-04-19 23:34:00,62.0,48.8,29.04,West,270,2.3,2.3,62,0.03,CLR,OVC,0.82,WeatherDisplay:10.37,2013-04-20 03:34:00,
2013-04-19 23:39:00,62.0,48.0,29.05,West,270,1.2,0.0,60,0.02,CLR,OVC,0.82,WeatherDisplay:10.37,2013-04-20 03:39:00,
2013-04-19 23:44:00,62.0,48.8,29.05,West,270,3.5,3.5,62,0.02,CLR,OVC,0.82,WeatherDisplay:10.37,2013-04-20 03:44:00,
2013-04-19 23:49:00,62.0,48.8,29.05,NW,315,2.3,2.3,62,0.01,CLR,OVC,0.82,WeatherDisplay:10.37,2013-04-20 03:49:00,
2013-04-19 23:54:00,62.0,48.8,29.05,West,270,3.5,3.5,62,0.01,CLR,OVC,0.82,WeatherDisplay:10.37,2013-04-20 03:54:00,
2013-04-19 23:59:00,62.0,48.4,29.05,WNW,292,2.3,2.3,61,0.01,CLR,OVC,0.82,WeatherDisplay:10.37,2013-04-20 03:59:00,